Location: Central Falls
(41.8900°N, 71.3929°W)
Time: 07:21:20
(UTC+00:00)

Tiros 1 despin weight - Pass Details

Date: 11 December 2023
Orbit: 581 x 624 km, 48.2° (Epoch: 29 February)

Event Time Altitude Azimuth Distance (km) Brightness Sun altitude
Rises 01:00:04 0° 296° (WNW) 2,801 ? -41.1°
Enters shadow 01:01:22 - 298° (WNW) 2,289 ? -41.3°
Reaches altitude 10° 01:02:23 10° 301° (WNW) 1,898 - -41.5°
Maximum altitude 01:06:39 54° 20° (NNE) 704 - -42.3°
Drops below altitude 10° 01:10:54 10° 98° (E) 1,895 - -43.1°
Sets 01:13:13 0° 103° (ESE) 2,796 - -43.5°
